Weather History for Clintonville, WI

Change the Weather History Date:

Thursday, January 24, 2013

  Actual Average Record
Temperature  
Mean Temperature 6 °F -  
Max Temperature 12 °F 26 °F 45 °F (1981)
Min Temperature 0 °F 7 °F -17 °F (1963)
Degree Days  
Heating Degree Days 59    
Moisture  
Dew Point -3 °F    
Average Humidity 64    
Maximum Humidity 85    
Minimum Humidity 48    
Precipitation  
Precipitation 0.00 in - - ()
Sea Level Pressure  
Sea Level Pressure 30.51 in    
Wind  
Wind Speed 6 mph (NNW)    
Max Wind Speed 10 mph    
Max Gust Speed -    
Visibility 10 miles    
Events Snow    
Averages and records for this station are not official NWS values.
T = Trace of Precipitation, MM = Missing Value Source: NWS Daily Summary

Daily Weather History Graph

Daily Weather History Graph

Search for Another Location

Airport:

Trip Planner

Search our weather history database for the weather conditions in past years. The results will help you decide how hot, cold, wet, or windy it might be!

Date:

Astronomy

Jan. 24, 2013 Rise Set
Actual Time 7:21 AM CST 4:53 PM CST
Civil Twilight 6:49 AM CST 5:24 PM CST
Nautical Twilight 6:14 AM CST 6:00 PM CST
Astronomical Twilight 5:40 AM CST 6:34 PM CST
Moon 2:53 PM CST (1/24) 5:20 AM CST (1/24)
Length of Visible Light 10h 34m
Length of Day
9h 31m
Waxing Gibbous, 94% of the Moon is Illuminated
Jan 24
Waxing Gibbous
Jan 26
Full
Feb 3
Last Quarter
Feb 10
New
Feb 17
First Quarter

Hourly Weather History & Observations

Time (CST) Temp. Windchill Dew Point Humidity Pressure Visibility Wind Dir Wind Speed Gust Speed Precip Events Conditions
12:15 AM 3.2 °F -12.2 °F -4.0 °F 72% 30.41 in 10.0 mi NW 10.4 mph - N/A   Clear
12:35 AM 3.2 °F -12.2 °F -4.0 °F 72% 30.42 in 10.0 mi NW 10.4 mph - N/A   Clear
12:55 AM 3.2 °F -12.2 °F -4.0 °F 72% 30.44 in 10.0 mi NNW 10.4 mph - N/A   Clear
1:15 AM 3.2 °F -10.3 °F -5.8 °F 66% 30.45 in 10.0 mi NW 8.1 mph - N/A   Clear
1:35 AM 1.4 °F -13.5 °F -5.8 °F 72% 30.46 in 10.0 mi NNW 9.2 mph - N/A   Clear
1:55 AM 1.4 °F -12.5 °F -5.8 °F 72% 30.47 in 10.0 mi NW 8.1 mph - N/A   Clear
2:15 AM 1.4 °F -11.3 °F -5.8 °F 72% 30.48 in 10.0 mi NNW 6.9 mph - N/A   Clear
2:35 AM 1.4 °F -9.9 °F -5.8 °F 72% 30.49 in 10.0 mi NW 5.8 mph - N/A   Clear
2:55 AM 1.4 °F -9.9 °F -5.8 °F 72% 30.51 in 10.0 mi NW 5.8 mph - N/A   Clear
3:15 AM 1.4 °F -11.3 °F -5.8 °F 72% 30.51 in 10.0 mi NW 6.9 mph - N/A   Clear
3:35 AM 1.4 °F -9.9 °F -5.8 °F 72% 30.51 in 10.0 mi NNW 5.8 mph - N/A   Clear
3:55 AM 1.4 °F -11.3 °F -5.8 °F 72% 30.52 in 10.0 mi NNW 6.9 mph - N/A   Clear
4:15 AM -0.4 °F -14.7 °F -7.6 °F 72% 30.53 in 10.0 mi NNW 8.1 mph - N/A   Clear
4:35 AM -0.4 °F -13.4 °F -7.6 °F 72% 30.54 in 10.0 mi NW 6.9 mph - N/A   Clear
4:55 AM -0.4 °F -12.0 °F -7.6 °F 72% 30.55 in 10.0 mi NNW 5.8 mph - N/A   Clear
5:15 AM -0.4 °F -8.3 °F -7.6 °F 72% 30.56 in 10.0 mi NNW 3.5 mph - N/A   Clear
5:35 AM -0.4 °F -13.4 °F -7.6 °F 72% 30.57 in 10.0 mi NNW 6.9 mph - N/A   Clear
5:55 AM -0.4 °F -12.0 °F -7.6 °F 72% 30.58 in 10.0 mi NW 5.8 mph - N/A   Clear
6:15 AM -0.4 °F -13.4 °F -7.6 °F 72% 30.58 in 10.0 mi NW 6.9 mph - N/A   Clear
6:35 AM -0.4 °F -10.4 °F -7.6 °F 72% 30.58 in 10.0 mi NNW 4.6 mph - N/A   Clear
6:55 AM -0.4 °F -12.0 °F -7.6 °F 72% 30.59 in 10.0 mi NNW 5.8 mph - N/A   Clear
7:15 AM -0.4 °F -12.0 °F -7.6 °F 72% 30.60 in 10.0 mi NW 5.8 mph - N/A   Clear
7:35 AM -0.4 °F -10.4 °F -7.6 °F 72% 30.61 in 10.0 mi NW 4.6 mph - N/A   Clear
7:55 AM -0.4 °F -10.4 °F -7.6 °F 72% 30.61 in 10.0 mi NW 4.6 mph - N/A   Clear
8:15 AM -0.4 °F -10.4 °F -7.6 °F 72% 30.62 in 10.0 mi NW 4.6 mph - N/A   Clear
8:35 AM -0.4 °F -10.4 °F -7.6 °F 72% 30.63 in 10.0 mi North 4.6 mph - N/A   Clear
8:55 AM 1.4 °F -6.2 °F -7.6 °F 66% 30.64 in 10.0 mi North 3.5 mph - N/A   Clear
9:15 AM 1.4 °F -9.9 °F -7.6 °F 66% 30.63 in 10.0 mi North 5.8 mph - N/A   Clear
9:35 AM 3.2 °F -6.2 °F -7.6 °F 61% 30.62 in 10.0 mi North 4.6 mph - N/A   Clear
9:55 AM 3.2 °F -6.2 °F -5.8 °F 66% 30.62 in 10.0 mi North 4.6 mph - N/A   Clear
10:15 AM 5.0 °F -4.1 °F -5.8 °F 61% 30.61 in 10.0 mi NNE 4.6 mph - N/A   Clear
10:35 AM 5.0 °F -4.1 °F -5.8 °F 61% 30.62 in 10.0 mi NNE 4.6 mph - N/A   Clear
10:55 AM 6.8 °F -2.0 °F -5.8 °F 56% 30.61 in 10.0 mi NNE 4.6 mph - N/A   Clear
11:15 AM 8.6 °F - -5.8 °F 52% 30.61 in 10.0 mi Calm Calm - N/A   Clear
11:35 AM 10.4 °F 2.2 °F -4.0 °F 52% 30.60 in 10.0 mi ESE 4.6 mph - N/A   Clear
11:55 AM 10.4 °F - -4.0 °F 52% 30.59 in 10.0 mi Calm Calm - N/A   Clear
12:15 PM 10.4 °F - -4.0 °F 52% 30.58 in 10.0 mi Calm Calm - N/A   Clear
12:35 PM 10.4 °F - -4.0 °F 52% 30.57 in 10.0 mi Calm Calm - N/A   Clear
12:55 PM 12.2 °F 4.3 °F -4.0 °F 48% 30.56 in 10.0 mi SW 4.6 mph - N/A   Clear
1:15 PM 10.4 °F 4.0 °F -4.0 °F 52% 30.56 in 10.0 mi South 3.5 mph - N/A   Clear
1:35 PM 12.2 °F - -2.2 °F 53% 30.55 in 10.0 mi Calm Calm - N/A   Clear
1:55 PM 12.2 °F 6.1 °F -2.2 °F 53% 30.55 in 10.0 mi SSW 3.5 mph - N/A   Clear
2:15 PM 12.2 °F 6.1 °F -4.0 °F 48% 30.54 in 10.0 mi SW 3.5 mph - N/A   Clear
2:35 PM 12.2 °F 6.1 °F -2.2 °F 53% 30.54 in 10.0 mi South 3.5 mph - N/A   Clear
2:55 PM 12.2 °F - -0.4 °F 57% 30.54 in 10.0 mi Calm Calm - N/A   Clear
3:15 PM 12.2 °F - -2.2 °F 53% 30.53 in 10.0 mi Calm Calm - N/A   Clear
3:35 PM 12.2 °F - -2.2 °F 53% 30.52 in 10.0 mi Calm Calm - N/A   Clear
3:55 PM 12.2 °F - -2.2 °F 53% 30.51 in 10.0 mi Calm Calm - N/A   Clear
4:15 PM 12.2 °F - -2.2 °F 53% 30.52 in 10.0 mi Calm Calm - N/A   Clear
4:35 PM 12.2 °F - -2.2 °F 53% 30.51 in 10.0 mi Calm Calm - N/A   Clear
4:55 PM 12.2 °F - -2.2 °F 53% 30.50 in 10.0 mi Calm Calm - N/A   Clear
5:15 PM 12.2 °F - -2.2 °F 53% 30.48 in 10.0 mi Calm Calm - N/A   Clear
5:35 PM 12.2 °F - -0.4 °F 57% 30.48 in 10.0 mi Calm Calm - N/A   Scattered Clouds
5:55 PM 12.2 °F 6.1 °F -0.4 °F 57% 30.47 in 10.0 mi SSE 3.5 mph - N/A   Scattered Clouds
6:15 PM 12.2 °F - -0.4 °F 57% 30.46 in 10.0 mi Calm Calm - N/A   Clear
6:35 PM 12.2 °F - -0.4 °F 57% 30.45 in 10.0 mi Calm Calm - N/A   Clear
6:55 PM 12.2 °F 6.1 °F 1.4 °F 62% 30.44 in 10.0 mi ESE 3.5 mph - N/A   Scattered Clouds
7:15 PM 12.2 °F 6.1 °F 1.4 °F 62% 30.43 in 10.0 mi ESE 3.5 mph - N/A   Mostly Cloudy
7:35 PM 12.2 °F 6.1 °F 1.4 °F 62% 30.43 in 10.0 mi SE 3.5 mph - N/A   Overcast
7:55 PM 12.2 °F - 1.4 °F 62% 30.43 in 10.0 mi Calm Calm - N/A   Overcast
8:15 PM 12.2 °F - 1.4 °F 62% 30.42 in 10.0 mi Calm Calm - N/A   Overcast
8:35 PM 12.2 °F - 1.4 °F 62% 30.41 in 10.0 mi Calm Calm - N/A   Overcast
8:55 PM 12.2 °F 6.1 °F 1.4 °F 62% 30.39 in 10.0 mi ESE 3.5 mph - N/A   Overcast
9:15 PM 12.2 °F 4.3 °F 1.4 °F 62% 30.38 in 10.0 mi ESE 4.6 mph - N/A   Overcast
9:35 PM 12.2 °F - 1.4 °F 62% 30.38 in 10.0 mi Calm Calm - N/A   Overcast
9:55 PM 12.2 °F 6.1 °F 1.4 °F 62% 30.36 in 10.0 mi ESE 3.5 mph - N/A   Overcast
10:15 PM 12.2 °F 4.3 °F 3.2 °F 67% 30.36 in 10.0 mi SSE 4.6 mph - N/A   Overcast
10:35 PM 12.2 °F 2.9 °F 6.8 °F 79% 30.36 in 2.5 mi SSE 5.8 mph - N/A Snow Light Snow
10:55 PM 12.2 °F 4.3 °F 8.6 °F 85% 30.36 in 2.5 mi SSE 4.6 mph - N/A Snow Light Snow
11:15 PM 12.2 °F 6.1 °F 8.6 °F 85% 30.35 in 3.0 mi South 3.5 mph - N/A Snow Light Snow
11:35 PM 12.2 °F - 8.6 °F 85% 30.34 in 1.5 mi Calm Calm - N/A Snow Light Snow
11:55 PM 12.2 °F 6.1 °F 8.6 °F 85% 30.33 in 1.2 mi SE 3.5 mph - N/A Snow Light Snow